Home   Weather   France   Laval   Past weeks
Flag for France

Past Weather in Laval, Mayenne, France — Yesterday and Last 2 Weeks

Currently: 37 °F. Overcast. (Weather station: Laval-Etronnier, France). See more current weather

Past Weather in Laval — Graph

°F

Laval Temperature Yesterday

Maximum temperature yesterday: 41 °F (at 1:30 pm)
Minimum temperature yesterday: 30 °F (at 5:00 am)
Average temperature yesterday: 36 °F

High & Low Weather Summary for the Past Weeks

 TemperatureHumidityPressure
High55 °F (Nov 23, 12:00 pm)100% (Nov 19, 2:00 am)30.39 "Hg (Nov 19, 2:00 am)
Low30 °F (Dec 2, 5:00 am)58% (Nov 22, 3:30 pm)29.33 "Hg (Nov 21, 1:00 pm)
Average45 °F89%29.96 "Hg
* Reported Nov 18 1:00 pm — Dec 3 1:00 pm, Laval. Weather by CustomWeather, © 2022

Note: Actual official high and low records may vary slightly from our data, if they occured in-between our weather recording intervals... More about our weather records

Laval Weather History for the Previous 24 Hours

Scroll right to see more
 ConditionsComfort  
Time TempWeatherWind HumidityBarometerVisibility
1:00 pm
Sat, Dec 3
37 °FOvercast.13 mph87%29.95 "HgN/A
12:30 pm37 °FOvercast.13 mph87%29.95 "HgN/A
12:00 pm37 °FOvercast.13 mph87%29.95 "HgN/A
11:30 am37 °FOvercast.12 mph87%29.98 "HgN/A
11:00 am37 °FOvercast.14 mph87%29.98 "Hg6 mi
10:30 am37 °FOvercast.14 mph87%29.98 "Hg6 mi
10:00 am37 °FOvercast.14 mph87%29.98 "Hg5 mi
9:30 am37 °FOvercast.13 mph87%29.98 "Hg6 mi
9:00 am37 °FOvercast.14 mph87%29.98 "Hg6 mi
8:30 am37 °FOvercast.14 mph87%29.98 "Hg5 mi
8:00 am37 °FOvercast.12 mph87%29.98 "Hg5 mi
7:00 am37 °FOvercast.15 mph87%29.98 "HgN/A
6:30 am37 °FOvercast.14 mph87%29.98 "HgN/A
6:00 am37 °FOvercast.13 mph87%29.98 "HgN/A
5:30 am37 °FOvercast.10 mph87%29.98 "HgN/A
5:00 am37 °FMostly cloudy.9 mph87%30.01 "HgN/A
4:30 am37 °FMostly cloudy.8 mph87%30.01 "HgN/A
4:00 am37 °FMostly cloudy.10 mph87%30.01 "HgN/A
3:30 am37 °FMostly cloudy.12 mph87%30.01 "HgN/A
3:00 am37 °FPartly cloudy.10 mph87%30.01 "HgN/A
2:30 am37 °FOvercast.10 mph87%30.01 "HgN/A
2:00 am37 °FOvercast.10 mph87%30.01 "HgN/A
12:30 am37 °FOvercast.9 mph87%30.04 "Hg5 mi
12:00 am37 °FOvercast.7 mph87%30.04 "Hg6 mi
11:30 pm
Fri, Dec 2
36 °FOvercast.7 mph93%30.04 "Hg5 mi
11:00 pm36 °FPassing clouds.6 mph87%30.04 "Hg4 mi
10:30 pm36 °FClear.10 mph87%30.04 "Hg5 mi
10:00 pm37 °FClear.12 mph87%30.04 "Hg6 mi
9:30 pm37 °FPassing clouds.9 mph87%30.07 "Hg6 mi
9:00 pm39 °FOvercast.12 mph87%30.04 "HgN/A
8:00 pm37 °FOvercast.7 mph93%30.07 "Hg5 mi
7:00 pm37 °FClear.7 mph87%30.07 "Hg5 mi
6:00 pm37 °FClear.6 mph87%30.09 "Hg5 mi
5:30 pm37 °FClear.9 mph93%30.09 "Hg5 mi
5:00 pm39 °FSunny.7 mph87%30.09 "Hg10 mi
4:30 pm39 °FClear.9 mph87%30.09 "Hg6 mi
4:00 pm41 °FClear.7 mph81%30.09 "Hg6 mi
3:30 pm41 °FClear.8 mph81%30.09 "Hg6 mi
3:00 pm41 °FClear.10 mph81%30.09 "Hg6 mi
2:30 pm41 °FPartly sunny.9 mph81%30.12 "Hg5 mi
2:00 pm41 °FOvercast.7 mph81%30.12 "Hg5 mi
Weather by CustomWeather, © 2022

See weather overview